Location: Cactus School
(34.5700°N, 118.0931°W)
Time: 09:26:29
(UTC-07:00)

S-56A Canister/Altair - Pass Details

Date: 16 April 2024
Orbit: 638 x 2488 km, 38.9° (Epoch: 29 May)

Event Time Altitude Azimuth Distance (km) Brightness Sun altitude
Rises 17:51:09 0° 234° (SW) 3,135 11.6 18.5°
Reaches altitude 10° 17:53:16 10° 231° (SW) 2,336 10.9 18.0°
Maximum altitude 17:58:36 63° 150° (SSE) 1,085 8.4 16.9°
Drops below altitude 10° 18:06:28 10° 72° (ENE) 3,390 10.3 15.3°
Sets 18:10:06 0° 70° (ENE) 4,678 11.0 14.6°
